Dewpoint
-13 -5 -1 -8 -7 -9 -7 -4 -4 -1 -1 1 1 0 -0 -1 0 4 -1 0 2 3 12 14 15 15 14 12 11 9 10 12 12 11 9 10 7 6 6 6 5 6 5 6 7 9 9 10 11
-3 -4 -2 -6 -12 -8 -2 -2 -1 -0 -1 -1 -1 -0 -1 -1 -2 -2 -2 0 2 2 8 13 15 15 15 13 11 9 11 14 12 12 10 10 9 7 7 7 6 5 6 6 8 9 10 11 10
-4 -4 -5 -7 -8 3 2 -1 -2 -0 -1 -0 -1 -2 -2 -2 -2 -2 -2 -0 1 2 2 9 14 15 15 14 12 10 11 14 15 13 12 11 10 8 8 7 6 5 6 7 8 9 10 11 10
-4 -6 -7 -11 2 0 -1 -2 -2 -1 -2 -1 -0 -1 -2 -2 -3 -3 -2 -0 1 2 -2 -1 10 14 14 15 13 11 10 15 15 15 12 12 12 9 9 8 6 5 6 9 8 9 11 11 11
-5 -7 -7 -7 1 -1 -2 -2 -3 -2 -3 -3 0 -1 -2 -3 -3 -3 -2 -1 0 1 -2 -6 -3 10 13 14 14 13 11 9 15 14 14 13 13 11 10 9 7 4 5 9 9 8 11 11 10
-5 -7 -8 -5 0 -2 -3 -3 -3 -3 -3 -4 -3 -1 -3 -4 -4 -4 -3 -2 -1 -1 -3 -6 -8 -5 6 13 14 14 13 11 10 14 14 14 13 12 11 10 9 5 4 7 10 8 9 10 9
-5 -5 -7 -6 -0 -2 -2 -3 -3 -4 -4 -5 -3 -3 -4 -5 -5 -5 -5 -3 -2 -2 -2 -4 -8 -9 -8 -2 10 13 14 12 11 11 13 15 14 12 11 11 10 7 4 6 9 10 9 8 10
-4 -4 -5 -2 -1 -2 -4 -4 -4 -5 -5 -6 -5 -5 -6 -6 -6 -6 -6 -5 -4 -2 -2 -3 -7 -9 -10 -9 -6 5 12 13 13 12 11 13 14 13 12 12 11 9 5 6 9 9 10 8 10
-5 -1 -2 -2 -2 -4 -5 -4 -5 -6 -6 -7 -7 -7 -7 -7 -6 -7 -7 -6 -6 -4 -2 -2 -7 -9 -10 -8 -6 -4 -2 7 12 13 13 11 13 14 12 12 11 10 7 6 7 9 9 8 10
-7 -3 -3 -5 -5 -6 -7 -7 -7 -6 -7 -8 -8 -7 -8 -7 -7 -8 -8 -8 -8 -6 -3 -3 -6 -12 -10 -6 -3 -5 -4 -3 3 11 13 12 13 12 13 13 12 11 8 8 6 9 8 9 11
-7 -4 -5 -5 -6 -6 -7 -8 -8 -7 -7 -8 -9 -8 -9 -9 -9 -10 -10 -10 -9 -8 -5 -4 -3 -8 -7 -5 -3 -1 1 0 -4 -0 9 12 13 14 12 13 14 13 9 8 8 9 9 9 11
-6 -7 -7 -8 -8 -8 -7 -8 -8 -8 -9 -9 -9 -10 -10 -10 -10 -11 -11 -11 -10 -8 -6 -6 -4 -7 -5 -6 -2 0 1 0 -0 3 0 5 11 12 13 12 14 13 11 8 8 7 9 8 10
-8 -8 -8 -8 -8 -8 -8 -8 -8 -8 -9 -10 -10 -10 -10 -11 -11 -11 -11 -11 -10 -8 -6 -6 -5 -8 -6 -3 -3 -2 -3 1 1 1 2 -0 3 10 11 13 13 13 12 11 10 8 8 8 10
-8 -8 -9 -9 -9 -8 -8 -8 -9 -9 -9 -10 -11 -11 -11 -12 -12 -11 -10 -11 -10 -9 -7 -6 -5 -4 -7 -5 -3 -2 -4 -1 1 1 1 3 2 1 7 10 12 12 12 11 11 9 8 8 9
-9 -8 -8 -8 -8 -9 -10 -7 -8 -9 -10 -10 -11 -11 -12 -12 -11 -10 -10 -10 -10 -8 -6 -6 -5 -4 -5 -4 -5 -3 -3 -2 -0 1 1 2 2 2 2 5 9 11 12 12 10 10 10 10 9
-8 -8 -6 -9 -11 -10 -11 -5 -9 -9 -10 -11 -12 -12 -13 -13 -12 -10 -10 -9 -9 -7 -6 -6 -6 -5 -5 -4 -5 -3 -3 -3 -2 -2 -8 -3 -0 2 2 2 4 9 10 11 11 9 10 11 10
-9 -8 -6 -7 -11 -11 -9 -7 -10 -10 -10 -11 -12 -13 -14 -13 -12 -11 -10 -9 -7 -6 -5 -6 -6 -6 -7 -5 -6 -4 -3 -3 -3 -1 -2 -8 -5 -3 -1 1 3 6 9 10 11 12 10 11 12
-9 -11 -8 -7 -10 -11 -9 -8 -10 -10 -11 -11 -12 -12 -12 -13 -13 -11 -9 -8 -6 -6 -6 -6 -6 -6 -7 -6 -6 -4 -3 -3 -3 -2 -1 -2 -7 -3 -2 -0 2 3 6 8 9 8 10 11 11
-13 -11 -8 -8 -11 -9 -8 -9 -10 -10 -11 -11 -12 -12 -13 -13 -11 -10 -9 -7 -7 -7 -6 -6 -5 -6 -6 -6 -5 -4 -4 -3 -3 -3 -3 -2 -3 -3 -3 -1 0 2 4 7 7 9 10 8 10
-9 -7 -7 -6 -9 -9 -8 -8 -9 -10 -11 -11 -11 -11 -11 -11 -10 -9 -8 -8 -7 -7 -6 -5 -5 -6 -6 -6 -5 -4 -4 -3 -4 -3 -3 -5 -3 -1 -2 -2 -1 0 2 4 6 8 8 9 8
-8 -7 -9 -6 -7 -9 -7 -6 -8 -10 -11 -11 -10 -9 -9 -9 -9 -9 -8 -8 -8 -8 -6 -5 -5 -6 -6 -6 -5 -5 -4 -3 -6 -3 -2 -4 -2 -2 -2 -3 -3 -1 -0 1 2 5 8 9 10
-5 -6 -9 -6 -3 -4 -8 1 -5 -10 -11 -11 -10 -9 -9 -9 -9 -9 -8 -8 -8 -8 -7 -6 -5 -6 -5 -6 -6 -4 -3 -3 -5 -4 -4 -9 -4 -2 -2 -3 -3 -2 -1 -0 1 2 5 6 8
-5 -5 -7 -5 -4 -2 -7 -1 -5 -9 -9 -10 -11 -10 -10 -9 -9 -8 -9 -8 -8 -7 -6 -5 -5 -6 -6 -6 -5 -5 -4 -3 -4 -4 -4 -4 -3 -3 -3 -3 -3 -3 -2 -1 -0 1 3 5 6
-6 -5 -5 -5 -4 6 1 -2 3 -6 -8 -10 -11 -10 -10 -9 -9 -9 -9 -8 -7 -7 -7 -5 -5 -5 -5 -6 -5 -5 -5 -3 -4 -5 -4 -4 -4 -4 -4 -4 -3 -3 -3 -2 -1 0 2 4 5
-4 -2 6 5 7 5 -8 -6 1 -7 -10 -11 -11 -10 -9 -9 -10 -9 -8 -7 -8 -7 -7 -5 -5 -6 -5 -6 -5 -5 -4 -4 -6 -5 -6 -5 -5 -4 -5 -4 -3 -3 -3 -3 -2 -1 1 3 5
-5 -3 8 4 2 1 -7 -2 2 -7 -12 -11 -11 -10 -9 -9 -9 -7 -7 -7 -7 -7 -6 -5 -5 -6 -6 -6 -5 -6 -4 -4 -7 -6 -5 -5 -5 -5 -5 -5 -4 -3 -3 -4 -3 -2 -0 2 4
-6 -2 -4 3 -4 1 1 0 -5 -9 -11 -11 -10 -9 -7 -8 -7 -6 -7 -8 -7 -6 -6 -5 -5 -5 -6 -6 -6 -6 -4 -5 -8 -6 -6 -5 -6 -5 -5 -5 -5 -4 -4 -4 -4 -2 -1 1 3
-3 -6 3 2 4 4 2 -2 3 1 -0 -7 -5 -5 -4 -5 -3 -5 -8 -8 -8 -7 -6 -6 -6 -6 -7 -6 -7 -5 -4 -8 -7 -6 -6 -6 -6 -5 -5 -5 -5 -5 -5 -4 -4 -3 -2 -1 2
4 4 2 3 4 5 3 7 3 3 1 0 -5 -5 -4 -1 -2 -6 -9 -9 -8 -7 -6 -6 -6 -8 -7 -7 -6 -6 -7 -6 -6 -6 -7 -7 -6 -6 -5 -5 -6 -6 -5 -5 -5 -4 -2 -2 0
-5 3 5 5 4 3 3 4 2 -0 -2 -2 -2 -4 -4 -4 -7 -9 -9 -9 -8 -7 -7 -7 -8 -8 -7 -7 -7 -6 -8 -7 -6 -5 -5 -9 -7 -7 -6 -6 -6 -6 -6 -5 -6 -5 -3 -2 -2
Wind_Speed
16 18 11 11 6 7 3 9 15 16 15 21 24 29 27 25 11 6 18 25 32 33 25 19 13 14 12 9 8 8 9 9 9 10 11 10 9 7 6 5 5 6 6 8 9 10 11 10 9
20 18 11 11 7 6 12 18 16 14 17 21 21 19 19 14 29 9 25 25 24 31 26 21 14 14 14 11 9 8 5 7 9 11 12 12 11 10 8 7 7 7 7 8 8 10 11 10 8
20 13 13 6 6 13 14 17 13 27 28 27 6 23 12 13 19 18 21 22 23 25 26 24 15 14 7 12 10 8 7 4 8 11 12 13 13 13 10 9 9 9 9 9 9 11 12 10 7
16 9 12 8 17 16 18 18 26 29 24 31 13 15 13 18 15 19 20 21 24 26 26 24 19 13 12 10 11 11 8 4 5 10 12 12 13 14 13 11 10 10 10 11 10 11 13 11 8
13 11 8 6 20 20 18 23 27 20 14 23 16 10 13 21 20 20 20 22 26 28 30 26 22 18 13 11 11 11 12 11 5 8 11 12 13 14 14 14 12 12 11 12 12 12 13 12 9
11 4 9 5 21 19 20 22 23 24 20 27 13 19 19 22 25 23 22 24 24 30 32 28 25 20 16 14 12 11 13 13 12 10 10 13 14 15 16 16 15 14 14 13 13 12 14 13 12
9 7 11 7 22 19 14 14 18 22 24 27 17 12 15 26 24 22 21 25 27 30 31 31 26 22 18 16 14 14 11 15 15 14 14 13 16 17 17 18 18 16 16 15 14 14 15 14 14
11 8 12 16 14 11 12 15 19 19 24 14 16 11 21 23 22 21 20 25 29 30 32 33 31 27 23 21 18 13 16 12 16 16 19 17 15 18 20 20 20 18 18 17 16 15 16 16 16
13 5 10 10 9 8 15 16 13 18 22 22 21 17 17 19 21 23 25 27 31 34 36 37 34 30 26 23 22 19 18 15 10 16 19 20 19 17 21 23 22 21 20 19 19 16 16 17 18
11 6 7 17 18 16 23 21 15 10 19 21 20 18 19 20 23 25 27 30 32 34 35 36 41 38 30 25 24 23 17 23 21 13 15 19 19 21 22 20 20 23 23 22 21 18 18 18 21
15 14 15 19 16 15 19 23 23 15 15 18 18 18 20 22 23 25 25 27 28 30 33 34 38 43 39 34 26 23 22 20 20 24 16 13 18 22 24 23 20 23 23 24 24 22 22 22 25
17 22 20 17 20 21 20 19 21 20 14 12 14 16 18 21 23 24 24 25 27 29 32 34 35 41 40 39 34 29 28 24 22 23 27 21 13 18 23 27 23 25 25 27 25 25 24 25 27
18 20 20 19 19 21 19 19 19 16 13 13 14 15 17 19 20 21 22 24 26 28 30 34 35 40 37 38 37 34 33 25 26 20 26 26 20 17 17 21 25 23 25 24 25 25 24 27 29
16 17 18 17 17 16 17 18 16 14 12 13 14 15 16 18 19 19 22 24 27 28 30 32 32 36 37 36 34 33 35 27 23 26 24 23 23 22 19 17 16 25 17 22 22 22 24 26 30
20 15 13 9 6 8 3 16 14 11 11 12 14 14 15 16 17 19 20 21 23 25 28 32 32 34 37 33 31 31 32 31 22 23 18 18 21 17 20 19 18 20 29 30 24 20 25 27 28
12 13 10 10 9 6 5 13 12 10 12 12 13 13 14 15 17 19 21 21 22 24 28 30 32 34 37 31 32 28 29 29 29 29 28 22 21 18 20 17 20 15 13 29 31 31 30 28 31
7 3 13 10 11 13 14 11 9 9 10 11 12 13 14 15 17 19 20 21 22 24 27 29 31 34 35 31 33 28 27 26 30 27 34 34 30 23 23 20 16 16 17 19 27 31 32 34 31
3 5 11 9 8 9 11 9 7 8 9 11 13 13 15 16 18 18 20 21 23 24 27 29 30 31 33 31 32 29 28 25 26 27 30 35 35 32 25 20 17 14 14 16 33 37 41 45 41
7 8 13 8 3 4 6 8 6 7 10 12 14 15 15 16 17 18 20 21 24 24 27 29 30 32 33 33 33 32 30 28 26 23 25 30 33 35 31 23 19 15 8 13 15 33 37 37 41
7 9 10 6 3 4 4 7 5 6 8 9 12 14 15 16 18 19 20 21 24 24 26 27 29 31 32 34 30 29 26 25 22 25 28 30 27 31 34 28 22 19 18 15 17 21 24 44 50
9 8 4 8 5 4 3 5 6 7 3 5 9 13 16 18 20 22 23 23 24 25 26 26 28 30 30 33 31 30 27 27 26 29 30 33 29 27 31 34 28 22 20 20 17 17 24 24 42
9 4 3 6 5 4 5 2 2 5 1 11 13 15 18 19 21 23 24 25 25 25 25 26 27 29 29 32 31 29 27 25 29 26 26 28 22 26 28 34 33 24 21 18 19 17 20 24 34
7 5 5 4 4 5 7 2 1 5 10 11 15 16 17 18 21 23 24 24 24 23 24 25 26 28 29 30 30 28 27 27 32 28 31 30 30 24 26 30 34 31 22 20 21 23 23 23 26
8 7 3 4 1 2 3 1 2 5 7 10 14 15 17 20 22 22 23 23 23 24 24 24 26 28 29 29 29 27 27 25 32 31 29 31 30 29 26 26 30 33 28 24 22 22 26 24 24
5 6 1 1 1 2 3 5 2 3 5 8 12 14 17 20 21 23 23 23 24 24 23 23 24 27 28 28 28 26 24 27 29 26 31 31 33 30 31 29 26 32 32 25 24 23 22 22 25
3 4 0 2 2 3 5 4 4 3 2 6 10 13 16 18 20 21 22 22 23 23 23 22 24 25 27 27 27 25 23 22 31 28 27 28 29 29 30 28 24 28 32 29 25 23 20 21 23
2 2 3 1 0 3 4 1 3 7 2 8 10 13 15 18 19 18 20 22 23 22 23 22 25 25 27 27 27 25 24 30 35 26 27 28 28 27 29 27 26 27 31 32 29 25 21 19 22
6 3 2 3 1 3 4 6 2 4 3 7 9 11 13 16 16 18 20 22 23 22 22 24 25 26 27 27 27 25 30 37 31 27 31 27 29 27 29 29 26 28 31 33 32 30 22 21 18
2 2 5 3 1 2 3 1 3 4 4 6 12 12 15 15 17 18 20 21 23 23 24 25 26 28 27 26 25 25 30 29 30 30 34 30 29 27 28 29 26 28 30 33 33 31 26 21 19
3 5 2 2 4 1 2 4 4 5 5 10 7 10 16 16 14 17 19 22 22 24 24 25 27 25 25 25 26 25 25 25 26 28 31 33 29 25 26 27 27 29 29 31 34 33 29 24 23
Wind_Direction
346 344 331 289 250 236 102 77 48 43 37 81 66 84 91 57 2 65 344 351 346 347 354 351 334 321 305 290 288 290 301 294 264 250 252 257 252 245 246 236 219 206 192 190 191 184 186 173 169
346 343 313 273 251 321 59 44 43 66 35 15 60 74 49 54 26 16 358 356 355 347 358 356 349 326 308 291 287 290 297 302 274 250 242 251 252 249 248 242 229 224 214 206 203 193 188 172 167
337 308 275 233 267 35 67 36 14 75 47 23 95 55 47 357 11 360 357 354 356 354 360 0 345 349 327 294 284 289 290 302 283 255 242 246 251 247 247 247 237 231 229 218 210 203 190 188 178
318 281 248 253 84 57 51 25 26 18 29 21 99 70 70 35 9 360 358 359 359 355 2 3 355 338 332 315 285 280 275 286 280 267 244 246 253 250 249 248 244 236 232 223 221 213 197 204 198
311 262 267 251 100 74 49 34 42 32 39 21 48 81 77 25 13 10 5 2 359 354 356 2 5 350 328 315 301 281 276 268 256 252 254 248 249 251 254 255 250 240 232 231 226 221 210 212 214
305 237 278 343 99 80 56 43 56 42 37 22 21 106 54 16 14 10 8 7 359 352 352 356 359 3 350 317 298 283 271 265 258 240 251 252 245 246 249 255 253 243 234 232 230 226 228 222 220
323 319 281 26 107 65 47 42 53 59 39 26 11 55 14 14 10 10 10 7 3 359 353 353 354 354 355 347 317 297 277 258 255 246 227 239 248 245 244 251 252 243 237 234 234 230 233 229 218
335 303 305 37 74 60 70 71 64 62 54 43 38 28 12 5 7 11 13 12 10 6 1 357 353 350 350 351 350 336 306 288 252 248 240 224 234 244 244 247 248 243 239 235 233 236 236 236 219
327 11 38 30 63 78 31 78 88 73 57 49 47 39 15 9 10 15 16 16 15 12 12 6 1 356 351 351 350 350 344 320 304 234 242 234 221 227 250 249 249 248 238 233 236 235 236 234 223
22 66 54 94 98 82 64 49 17 75 50 37 32 28 21 19 19 19 17 16 15 12 12 14 8 12 4 1 350 351 348 334 327 309 249 238 232 223 222 244 256 251 242 235 235 231 232 229 223
21 96 85 59 61 98 87 59 40 64 49 34 27 22 21 22 23 22 20 20 17 12 9 11 4 12 18 13 4 8 3 343 326 335 315 257 234 232 224 223 235 242 239 232 230 232 228 222 222
77 72 82 74 74 69 67 79 60 61 63 42 32 30 26 25 23 21 20 19 18 14 5 10 5 7 14 16 20 14 3 350 7 356 332 324 285 234 233 227 219 235 238 231 229 232 231 224 222
93 94 91 90 87 82 74 80 70 53 46 42 38 33 32 29 26 23 19 17 15 13 8 9 5 1 12 8 13 14 5 16 3 357 343 334 322 282 256 239 221 224 239 232 229 230 234 229 222
119 106 97 93 94 85 80 62 58 45 36 39 38 32 32 28 27 22 19 14 11 6 6 6 5 358 5 6 6 6 2 14 9 4 360 348 326 324 298 283 234 227 217 233 230 230 236 232 227
117 120 121 104 54 80 166 68 49 37 39 38 37 33 29 28 25 23 18 14 8 3 1 2 360 356 1 2 4 360 356 3 16 2 351 323 318 323 318 297 279 262 207 224 228 222 238 235 230
152 161 135 56 7 126 251 68 56 40 27 35 34 31 24 24 22 16 12 10 8 3 2 0 356 355 359 1 357 0 356 356 356 352 358 334 318 312 302 308 312 277 255 221 231 225 225 230 232
199 229 114 96 52 46 12 81 47 38 37 29 31 28 21 16 15 12 7 5 4 1 0 359 357 356 358 357 351 356 355 356 349 350 346 358 359 337 307 302 308 302 253 209 215 227 225 225 235
58 117 85 49 17 74 92 97 77 37 40 23 23 21 18 11 8 7 2 359 359 357 358 358 358 357 358 355 353 351 350 356 351 352 345 340 357 357 342 321 307 305 279 253 218 233 240 240 236
60 72 91 83 44 85 79 85 72 58 28 26 18 15 14 5 358 358 357 354 355 354 356 356 356 357 357 354 356 352 346 351 351 349 348 331 347 358 356 339 325 309 289 259 259 220 234 241 244
83 109 95 101 57 241 143 102 107 47 53 32 16 8 4 359 356 354 354 354 355 353 354 355 354 355 355 348 352 348 354 343 334 349 335 330 348 350 356 352 328 316 287 267 254 242 234 225 243
46 43 110 77 143 105 250 176 151 113 117 21 21 3 357 358 353 350 352 351 353 354 355 355 353 353 351 347 350 348 354 339 338 348 343 334 350 350 344 358 352 333 302 284 286 255 239 242 233
89 50 86 125 237 63 2 112 136 30 264 25 10 4 359 352 352 349 349 353 352 353 354 354 352 352 349 347 349 353 349 343 342 333 320 333 344 348 344 346 355 347 337 300 282 269 244 238 228
109 156 128 175 84 42 12 268 17 106 13 5 1 355 353 351 348 349 348 352 349 352 352 349 352 351 348 347 348 348 348 338 340 345 339 346 350 352 345 341 347 352 338 325 301 273 264 248 252
139 140 167 289 328 199 209 176 271 15 14 352 350 347 350 349 347 347 347 348 348 349 351 352 352 350 347 346 346 348 347 341 342 350 343 344 344 348 343 343 343 345 343 330 319 297 265 268 252
213 187 20 226 183 237 205 262 101 64 20 354 338 347 345 345 347 346 346 345 345 346 349 349 349 349 345 344 345 346 340 335 338 340 336 346 343 344 350 346 344 341 342 336 328 318 286 272 261
36 350 300 193 298 47 139 233 144 154 33 339 332 340 339 341 344 345 339 341 341 346 348 347 351 350 343 342 345 348 340 343 336 338 350 346 342 343 343 348 347 341 344 342 330 326 311 271 266
64 116 25 56 300 266 235 131 206 165 22 340 327 334 333 336 337 332 337 339 339 343 347 348 350 350 344 342 342 347 327 332 332 351 349 347 345 343 345 350 351 344 345 346 343 334 325 294 266
7 53 190 138 247 258 267 243 163 119 299 306 320 316 318 320 325 327 339 336 340 345 349 350 351 348 342 341 345 340 336 344 359 355 351 347 349 347 348 352 351 349 348 343 348 345 332 326 283
13 73 55 85 329 286 295 236 204 169 222 260 288 307 312 306 307 325 335 341 345 350 350 350 350 348 344 344 347 341 339 347 347 346 353 350 351 348 350 350 351 351 346 343 345 350 341 336 318
151 152 141 227 173 234 288 277 237 170 235 259 292 301 298 300 317 333 343 342 351 351 352 351 348 348 347 348 348 339 348 348 349 345 342 351 350 350 348 349 353 348 347 341 348 351 348 339 341
Height
1513 1510 1509 1509 1510 1492 1490 1502 1497 1508 1515 1524 1525 1529 1549 1560 1561 1567 1570 1564 1557 1550 1545 1542 1540 1538 1537 1536 1535 1535 1535 1536 1536 1538 1540 1541 1542 1542 1543 1544 1545 1546 1546 1546 1546 1547 1548 1548 1549
1513 1512 1509 1505 1505 1500 1510 1502 1512 1517 1526 1526 1529 1538 1545 1561 1565 1568 1566 1565 1560 1552 1546 1543 1541 1539 1537 1536 1535 1535 1534 1535 1536 1537 1538 1540 1541 1542 1543 1544 1546 1547 1547 1547 1547 1547 1549 1548 1550
1513 1512 1511 1499 1496 1521 1522 1519 1522 1526 1534 1534 1541 1547 1559 1573 1573 1573 1570 1566 1561 1555 1549 1544 1541 1538 1536 1535 1535 1535 1534 1534 1535 1536 1537 1539 1540 1541 1542 1543 1545 1546 1547 1548 1548 1548 1549 1550 1550
1514 1509 1506 1499 1514 1523 1526 1532 1534 1536 1539 1545 1543 1559 1573 1578 1576 1574 1571 1566 1561 1555 1550 1545 1541 1539 1536 1534 1534 1533 1533 1534 1534 1535 1536 1538 1539 1541 1541 1542 1544 1545 1547 1548 1549 1549 1549 1551 1552
1513 1508 1503 1496 1515 1530 1538 1544 1547 1547 1553 1557 1552 1571 1574 1577 1577 1574 1570 1565 1561 1556 1551 1547 1544 1540 1538 1535 1534 1533 1533 1533 1533 1533 1535 1536 1538 1540 1541 1542 1542 1545 1545 1547 1548 1549 1550 1551 1553
1511 1503 1506 1501 1521 1538 1547 1553 1554 1559 1563 1564 1562 1567 1577 1578 1575 1573 1570 1565 1562 1557 1551 1547 1544 1541 1537 1535 1533 1532 1532 1532 1532 1532 1533 1534 1535 1536 1538 1539 1541 1542 1544 1546 1547 1549 1550 1551 1552
1514 1507 1506 1501 1530 1549 1556 1560 1561 1566 1569 1571 1568 1571 1579 1577 1577 1574 1572 1567 1562 1557 1552 1546 1542 1540 1537 1534 1532 1530 1528 1529 1530 1530 1530 1531 1533 1534 1535 1537 1538 1540 1541 1543 1546 1547 1549 1550 1552
1520 1514 1510 1532 1547 1563 1562 1563 1567 1568 1576 1577 1573 1579 1581 1580 1578 1575 1572 1568 1563 1558 1553 1547 1542 1539 1536 1533 1530 1528 1527 1526 1526 1526 1526 1527 1528 1531 1532 1533 1535 1537 1539 1541 1543 1546 1547 1550 1551
1524 1523 1543 1550 1554 1566 1562 1563 1570 1573 1578 1580 1583 1586 1586 1582 1579 1575 1572 1569 1565 1560 1554 1548 1543 1538 1534 1531 1529 1526 1525 1525 1523 1521 1522 1522 1523 1525 1529 1530 1531 1534 1535 1538 1540 1542 1546 1548 1550
1528 1540 1552 1554 1560 1566 1571 1573 1573 1572 1581 1585 1586 1587 1586 1583 1580 1577 1573 1569 1566 1562 1557 1552 1546 1540 1535 1531 1528 1526 1519 1525 1523 1518 1517 1518 1520 1520 1521 1526 1528 1530 1531 1534 1536 1538 1542 1545 1548
1536 1543 1551 1559 1562 1566 1573 1579 1581 1577 1585 1589 1589 1589 1587 1585 1583 1580 1577 1574 1570 1567 1561 1556 1550 1544 1538 1534 1529 1527 1525 1526 1519 1521 1512 1514 1515 1516 1517 1519 1523 1524 1525 1529 1532 1534 1537 1540 1543
1548 1551 1557 1565 1567 1572 1577 1583 1586 1588 1592 1592 1591 1590 1589 1587 1585 1582 1579 1576 1573 1570 1565 1559 1554 1547 1542 1538 1532 1529 1526 1522 1522 1520 1514 1510 1509 1510 1513 1513 1516 1520 1519 1521 1526 1529 1533 1537 1539
1556 1561 1566 1570 1573 1577 1581 1585 1589 1591 1592 1592 1592 1591 1591 1590 1588 1586 1583 1579 1575 1571 1567 1561 1557 1551 1546 1541 1537 1532 1526 1522 1522 1518 1515 1509 1507 1505 1506 1508 1510 1512 1517 1518 1521 1523 1527 1532 1535
1560 1564 1569 1573 1576 1579 1582 1588 1588 1593 1592 1592 1592 1592 1592 1591 1589 1587 1584 1581 1577 1573 1568 1565 1561 1555 1549 1545 1541 1536 1531 1525 1522 1520 1517 1512 1506 1504 1502 1502 1503 1499 1505 1516 1518 1517 1521 1526 1531
1563 1566 1569 1572 1577 1579 1580 1587 1592 1594 1593 1593 1592 1593 1592 1592 1591 1588 1586 1583 1580 1575 1571 1566 1562 1557 1552 1548 1544 1540 1535 1529 1524 1520 1516 1510 1506 1502 1500 1498 1499 1502 1494 1508 1512 1510 1520 1521 1526
1560 1559 1566 1574 1573 1577 1577 1592 1595 1594 1594 1594 1593 1594 1593 1592 1591 1590 1588 1584 1581 1577 1573 1568 1563 1558 1553 1550 1546 1542 1538 1533 1527 1521 1517 1511 1506 1502 1499 1498 1498 1497 1494 1500 1506 1509 1515 1517 1521
1553 1551 1560 1574 1577 1577 1576 1588 1595 1595 1595 1595 1594 1594 1594 1593 1592 1590 1588 1585 1582 1578 1574 1570 1565 1559 1554 1550 1546 1543 1539 1535 1529 1524 1517 1512 1504 1500 1496 1494 1494 1495 1495 1494 1495 1498 1508 1512 1514
1549 1549 1562 1574 1582 1578 1585 1592 1596 1596 1595 1596 1595 1594 1595 1594 1593 1591 1588 1586 1583 1579 1575 1571 1566 1561 1556 1551 1545 1542 1538 1535 1532 1526 1520 1512 1506 1500 1494 1491 1490 1491 1491 1489 1489 1490 1501 1505 1506
1553 1556 1569 1579 1584 1581 1586 1590 1595 1596 1597 1598 1597 1596 1595 1594 1594 1591 1588 1586 1582 1579 1574 1571 1567 1562 1556 1550 1545 1541 1537 1534 1531 1527 1522 1514 1508 1502 1496 1491 1489 1487 1484 1484 1487 1490 1495 1498 1501
1560 1566 1575 1581 1584 1580 1585 1590 1593 1595 1597 1598 1598 1597 1596 1594 1593 1591 1588 1585 1582 1578 1575 1572 1568 1563 1558 1551 1547 1543 1538 1534 1530 1526 1521 1515 1509 1504 1499 1492 1488 1485 1482 1481 1483 1485 1488 1492 1494
1573 1570 1574 1575 1583 1581 1583 1584 1587 1592 1594 1594 1596 1598 1596 1594 1592 1590 1587 1584 1581 1578 1575 1571 1568 1565 1559 1552 1547 1542 1537 1532 1527 1523 1518 1513 1509 1505 1500 1494 1489 1485 1481 1479 1479 1479 1479 1484 1489
1575 1581 1578 1582 1581 1583 1582 1590 1584 1589 1590 1591 1595 1596 1595 1595 1593 1590 1587 1584 1581 1578 1575 1572 1569 1565 1559 1553 1547 1542 1538 1531 1527 1522 1516 1512 1509 1505 1500 1494 1489 1485 1481 1478 1474 1472 1475 1481 1484
1583 1581 1580 1580 1581 1588 1588 1593 1584 1586 1591 1594 1596 1596 1596 1594 1593 1590 1587 1584 1581 1578 1575 1572 1568 1565 1559 1553 1548 1543 1538 1532 1525 1520 1514 1509 1506 1504 1500 1494 1487 1483 1479 1476 1473 1470 1470 1472 1475
1580 1582 1581 1578 1577 1595 1596 1595 1594 1592 1596 1596 1598 1596 1596 1594 1592 1589 1587 1584 1581 1577 1574 1571 1567 1564 1559 1553 1548 1543 1538 1530 1524 1518 1513 1508 1505 1501 1497 1492 1487 1482 1477 1473 1469 1466 1465 1465 1465
1579 1580 1597 1595 1593 1594 1585 1586 1593 1593 1596 1598 1597 1596 1596 1594 1592 1589 1586 1583 1579 1575 1572 1568 1565 1562 1557 1552 1547 1543 1538 1531 1524 1519 1513 1508 1503 1500 1495 1491 1485 1480 1475 1470 1466 1461 1458 1458 1458
1579 1581 1592 1594 1590 1583 1582 1590 1590 1592 1595 1597 1597 1597 1596 1594 1592 1589 1586 1582 1578 1574 1570 1566 1562 1559 1555 1551 1546 1542 1536 1528 1524 1518 1513 1509 1504 1500 1495 1490 1485 1480 1473 1466 1462 1457 1453 1451 1450
1583 1587 1589 1599 1592 1597 1583 1589 1587 1590 1594 1596 1597 1597 1596 1594 1591 1587 1584 1581 1577 1573 1569 1564 1560 1557 1553 1549 1544 1540 1532 1527 1522 1517 1513 1508 1504 1499 1494 1488 1483 1478 1472 1466 1459 1453 1448 1445 1445
1588 1592 1596 1595 1603 1596 1583 1574 1582 1595 1599 1598 1598 1597 1596 1593 1590 1586 1582 1579 1576 1572 1568 1563 1559 1555 1551 1548 1543 1538 1531 1526 1520 1517 1512 1507 1502 1497 1493 1487 1482 1477 1470 1464 1457 1450 1445 1440 1439
1598 1603 1613 1616 1616 1600 1596 1583 1597 1597 1601 1600 1597 1595 1593 1590 1587 1584 1581 1578 1574 1571 1567 1563 1557 1553 1550 1546 1542 1537 1531 1525 1520 1515 1511 1506 1500 1496 1491 1486 1480 1476 1470 1462 1455 1449 1442 1436 1431
1591 1611 1611 1607 1610 1612 1612 1598 1596 1596 1597 1595 1593 1592 1589 1586 1584 1583 1580 1577 1573 1570 1566 1561 1557 1553 1550 1546 1541 1535 1530 1526 1521 1515 1510 1506 1500 1495 1490 1485 1479 1474 1468 1461 1453 1446 1441 1435 1429